When you browse on this site, cookies collect data to enhance your experience and personalize the content and advertising you see.
Visit our Privacy Policy to learn more. By continuing to use the site, you agree to this use of cookies and data.
  • en France
  • Liste des pays
  • À 7 jours
  • Température de l'eau
  • Carte météo
  • Widgets météo
  • user-avatar
    Se connecter

    Météo par heure à Vancouver

    Ce jour, 7 Avril, Mardi

    Heure Température Précipitation Vent Pression Humidité
    00:00 +6°C° 0 mm 1 m/s 759 mmHg 77%
    01:00 +6°C° 0 mm 1 m/s 759 mmHg 78%
    02:00 +6°C° 0 mm 1 m/s 759 mmHg 80%
    03:00 +4°C° 0 mm 2 m/s 759 mmHg 83%
    04:00 +4°C° 0 mm 2 m/s 760 mmHg 85%
    05:00 +5°C° 0 mm 2 m/s 760 mmHg 85%
    06:00 +5°C° 0 mm 2 m/s 760 mmHg 84%
    07:00 +5°C° 0 mm 2 m/s 760 mmHg 83%
    08:00 +6°C° 0 mm 2 m/s 760 mmHg 80%
    09:00 +7°C° 0 mm 2 m/s 760 mmHg 77%
    10:00 +8°C° 0 mm 2 m/s 760 mmHg 73%
    11:00 +9°C° 0 mm 2 m/s 761 mmHg 70%
    12:00 +10°C° 0 mm 2 m/s 761 mmHg 66%
    13:00 +10°C° 0 mm 2 m/s 761 mmHg 63%
    14:00 +10°C° 0 mm 2 m/s 761 mmHg 62%
    15:00 +10°C° 0 mm 2 m/s 761 mmHg 60%
    16:00 +10°C° 0 mm 2 m/s 761 mmHg 59%
    17:00 +10°C° 0 mm 1 m/s 762 mmHg 65%
    18:00 +8°C° 0 mm 1 m/s 762 mmHg 70%
    19:00 +6°C° 0 mm 0 m/s 762 mmHg 75%
    20:00 +7°C° 0 mm 1 m/s 763 mmHg 77%
    21:00 +6°C° 0 mm 1 m/s 763 mmHg 79%
    22:00 +6°C° 0 mm 1 m/s 764 mmHg 81%
    23:00 +5°C° 0 mm 1 m/s 764 mmHg 81%

    Demain, 8 Avril, Mercredi

    Heure Température Précipitation Vent Pression Humidité
    00:00 +5°C° 0 mm 1 m/s 764 mmHg 82%
    01:00 +5°C° 0 mm 1 m/s 764 mmHg 82%
    02:00 +5°C° 0 mm 1 m/s 764 mmHg 82%
    03:00 +4°C° 0 mm 2 m/s 764 mmHg 82%
    04:00 +3°C° 0 mm 2 m/s 764 mmHg 82%
    05:00 +4°C° 0 mm 2 m/s 764 mmHg 79%
    06:00 +5°C° 0 mm 2 m/s 764 mmHg 76%
    07:00 +6°C° 0 mm 2 m/s 764 mmHg 73%
    08:00 +8°C° 0 mm 2 m/s 764 mmHg 68%
    09:00 +10°C° 0 mm 2 m/s 764 mmHg 62%
    10:00 +13°C° 0 mm 2 m/s 763 mmHg 56%
    11:00 +14°C° 0 mm 2 m/s 763 mmHg 55%
    12:00 +14°C° 0 mm 2 m/s 763 mmHg 54%
    13:00 +14°C° 0 mm 3 m/s 762 mmHg 53%
    14:00 +15°C° 0 mm 2 m/s 762 mmHg 55%
    15:00 +14°C° 0 mm 2 m/s 762 mmHg 56%
    16:00 +14°C° 0 mm 2 m/s 761 mmHg 57%
    17:00 +13°C° 0 mm 2 m/s 762 mmHg 63%
    18:00 +10°C° 0 mm 2 m/s 762 mmHg 69%
    19:00 +8°C° 0 mm 2 m/s 762 mmHg 75%
    20:00 +8°C° 0 mm 2 m/s 762 mmHg 75%
    21:00 +7°C° 0 mm 2 m/s 762 mmHg 75%
    22:00 +7°C° 0 mm 2 m/s 762 mmHg 75%
    23:00 +7°C° 0 mm 1 m/s 762 mmHg 75%

    Après-demain, 9 Avril, Jeudi

    Heure Température Précipitation Vent Pression Humidité
    00:00 +7°C° 0 mm 1 m/s 762 mmHg 75%
    01:00 +7°C° 0 mm 1 m/s 762 mmHg 75%
    02:00 +7°C° 0 mm 1 m/s 761 mmHg 75%
    03:00 +7°C° 0 mm 1 m/s 761 mmHg 75%
    04:00 +7°C° 0 mm 1 m/s 760 mmHg 75%
    05:00 +7°C° 0 mm 1 m/s 760 mmHg 73%
    06:00 +8°C° 0 mm 1 m/s 760 mmHg 72%
    07:00 +9°C° 0 mm 1 m/s 760 mmHg 70%
    08:00 +10°C° 0 mm 1 m/s 760 mmHg 66%
    09:00 +12°C° 0 mm 1 m/s 759 mmHg 61%
    10:00 +14°C° 0 mm 2 m/s 758 mmHg 57%
    11:00 +15°C° 0 mm 2 m/s 758 mmHg 56%
    12:00 +15°C° 0 mm 2 m/s 758 mmHg 55%
    13:00 +16°C° 0 mm 2 m/s 757 mmHg 54%
    14:00 +16°C° 0 mm 2 m/s 757 mmHg 54%
    15:00 +16°C° 0 mm 2 m/s 757 mmHg 55%
    16:00 +16°C° 0 mm 1 m/s 756 mmHg 55%
    17:00 +14°C° 0 mm 1 m/s 757 mmHg 62%
    18:00 +12°C° 0 mm 1 m/s 757 mmHg 68%
    19:00 +9°C° 0 mm 0 m/s 758 mmHg 75%
    20:00 +9°C° 0 mm 1 m/s 758 mmHg 77%
    21:00 +9°C° 0 mm 1 m/s 758 mmHg 79%
    22:00 +8°C° 0 mm 1 m/s 759 mmHg 82%
    23:00 +8°C° 0 mm 1 m/s 759 mmHg 83%

    10 Avril, Vendredi

    Heure Température Précipitation Vent Pression Humidité
    00:00 +7°C° 0 mm 2 m/s 759 mmHg 85%
    01:00 +7°C° 0 mm 2 m/s 759 mmHg 86%
    02:00 +6°C° 0 mm 2 m/s 759 mmHg 87%
    03:00 +7°C° 0 mm 1 m/s 759 mmHg 87%
    04:00 +7°C° 0 mm 1 m/s 760 mmHg 88%
    05:00 +8°C° 0 mm 1 m/s 760 mmHg 86%
    06:00 +8°C° 0 mm 1 m/s 760 mmHg 83%
    07:00 +9°C° 0 mm 1 m/s 760 mmHg 80%
    08:00 +11°C° 0 mm 1 m/s 760 mmHg 74%
    09:00 +13°C° 0 mm 1 m/s 760 mmHg 68%
    10:00 +14°C° 0 mm 1 m/s 759 mmHg 61%
    11:00 +15°C° 0 mm 1 m/s 759 mmHg 61%
    12:00 +15°C° 0 mm 1 m/s 759 mmHg 60%
    13:00 +16°C° 0 mm 1 m/s 759 mmHg 59%
    14:00 +16°C° 0 mm 1 m/s 759 mmHg 60%
    15:00 +15°C° 0 mm 1 m/s 759 mmHg 61%
    16:00 +15°C° 0 mm 1 m/s 759 mmHg 62%
    17:00 +14°C° 0 mm 1 m/s 759 mmHg 69%
    18:00 +12°C° 0 mm 1 m/s 759 mmHg 77%
    19:00 +9°C° 0 mm 0 m/s 759 mmHg 84%
    20:00 +10°C° 0 mm 1 m/s 760 mmHg 86%
    21:00 +9°C° 0 mm 1 m/s 760 mmHg 87%
    22:00 +9°C° 0 mm 1 m/s 760 mmHg 89%
    23:00 +9°C° 0 mm 1 m/s 760 mmHg 89%

    11 Avril, Samedi

    Heure Température Précipitation Vent Pression Humidité
    00:00 +9°C° 0 mm 1 m/s 760 mmHg 89%
    01:00 +9°C° 0 mm 1 m/s 760 mmHg 89%
    02:00 +8°C° 0 mm 1 m/s 760 mmHg 90%
    03:00 +8°C° 0 mm 1 m/s 760 mmHg 91%
    04:00 +8°C° 0 mm 1 m/s 760 mmHg 91%
    05:00 +9°C° 0 mm 1 m/s 761 mmHg 89%
    06:00 +9°C° 0 mm 1 m/s 761 mmHg 87%
    07:00 +10°C° 0 mm 1 m/s 762 mmHg 84%
    08:00 +11°C° 0 mm 1 m/s 762 mmHg 79%
    09:00 +12°C° 0 mm 2 m/s 762 mmHg 74%
    10:00 +14°C° 0 mm 2 m/s 763 mmHg 68%
    11:00 +14°C° 0 mm 2 m/s 763 mmHg 67%
    12:00 +14°C° 0 mm 2 m/s 763 mmHg 66%
    13:00 +15°C° 0 mm 1 m/s 763 mmHg 65%
    14:00 +15°C° 0 mm 1 m/s 763 mmHg 66%
    15:00 +15°C° 0 mm 1 m/s 763 mmHg 67%
    16:00 +15°C° 0 mm 1 m/s 763 mmHg 68%
    17:00 +13°C° 0 mm 1 m/s 763 mmHg 74%
    18:00 +12°C° 0 mm 1 m/s 763 mmHg 80%
    19:00 +11°C° 0 mm 1 m/s 763 mmHg 86%
    20:00 +10°C° 0 mm 1 m/s 764 mmHg 84%
    21:00 +10°C° 0 mm 1 m/s 764 mmHg 83%
    22:00 +9°C° 0 mm 1 m/s 764 mmHg 82%
    23:00 +9°C° 0 mm 1 m/s 764 mmHg 80%

    12 Avril, Dimanche

    Heure Température Précipitation Vent Pression Humidité
    00:00 +9°C° 0 mm 1 m/s 764 mmHg 79%
    01:00 +8°C° 0 mm 1 m/s 764 mmHg 77%
    02:00 +8°C° 0 mm 1 m/s 764 mmHg 76%
    03:00 +8°C° 0 mm 1 m/s 764 mmHg 75%
    04:00 +8°C° 0 mm 1 m/s 764 mmHg 74%
    05:00 +8°C° 0 mm 1 m/s 764 mmHg 71%
    06:00 +9°C° 0 mm 1 m/s 764 mmHg 68%
    07:00 +10°C° 0 mm 1 m/s 764 mmHg 65%
    08:00 +11°C° 0 mm 1 m/s 764 mmHg 61%
    09:00 +12°C° 0 mm 1 m/s 764 mmHg 57%
    10:00 +14°C° 0 mm 1 m/s 763 mmHg 53%
    11:00 +15°C° 0 mm 1 m/s 763 mmHg 52%
    12:00 +16°C° 0 mm 1 m/s 763 mmHg 50%
    13:00 +18°C° 0 mm 1 m/s 762 mmHg 49%
    14:00 +18°C° 0 mm 1 m/s 762 mmHg 50%
    15:00 +18°C° 0 mm 1 m/s 762 mmHg 50%
    16:00 +18°C° 0 mm 1 m/s 762 mmHg 51%
    17:00 +15°C° 0 mm 1 m/s 762 mmHg 58%
    18:00 +13°C° 0 mm 1 m/s 762 mmHg 65%
    19:00 +11°C° 0 mm 1 m/s 761 mmHg 72%
    20:00 +11°C° 0 mm 1 m/s 762 mmHg 71%
    21:00 +10°C° 0 mm 1 m/s 762 mmHg 70%
    22:00 +10°C° 0 mm 1 m/s 762 mmHg 70%
    23:00 +9°C° 0 mm 1 m/s 762 mmHg 70%
    Voir plus